Погода в Даммаме

Саудовская Аравия     26°21′16″N   49°58′35″E
темп.,
°C
ветер,
м/с
пор.,
м/с
влажн.,
%
обл.,
%
осадки,
мм/ч
давл.,
гПа
погр.,
м
7 марта, вс
вс700:00+18сз59370 0.0 1019216
03:00+17сз612320 0.0 1017269
06:00+15сз611320 0.0 1018210
09:00+20ссз810350 0.0 1019851
12:00+24ссз79250 0.0 10171025
15:00+24с88230 0.0 10151042
18:00+20с68290 0.0 1015350
21:00+18ссз34380 0.0 101692
8 марта, пн
пн800:00+17сз23390 0.0 101641
03:00+17сз34330 0.0 101441
06:00+16сз22310 0.0 101530
09:00+21сз22220 0.0 1016243
12:00+25зсз11160 0.0 1014642
15:00+26в43180 0.0 1012462
18:00+23в45260 0.0 1012171
21:00+21вюв57390 0.0 1012157
9 марта, вт
вт900:00+20юв45450 0.0 101188
03:00+20ююв45490 0.0 101053
06:00+19ююз12350 0.0 101223
09:00+25юз23200 0.0 1015251
12:00+29сз45170 0.0 1014629
15:00+27с77250 0.0 1012571
18:00+23с68340 0.0 1014352
21:00+22с58370 0.0 1015210
10 марта, ср
ср1000:00+21с57400 0.0 1015125
03:00+20ссз45390 0.0 101461
06:00+19ссз56410 0.0 1016101
09:00+24с69300 0.0 1018523
12:00+28с78180 0.0 10161117
15:00+27с99190 0.0 10151006
18:00+24с69270 0.0 1015476
21:00+22ссз34360 0.0 101791
11 марта, чт
чт1100:00+20сз33370 0.0 101529
03:00+20ссз33340 0.0 101323
06:00+18ссв12430 0.0 101323
09:00+23юв11340 0.0 1014266
12:00+27ю552471 0.0 1011466
15:00+28юв672252 0.0 1008428
18:00+25ююв68300 0.0 1007135
21:00+27ю712231 0.0 1006150